[[{"header":{"parameterUnit":"m.s-1","parameterCategory":1,"la1":30.2991,"la2":30.254,"lo1":-89.0895,"lo2":-89.0444,"dy":0.0017,"dx":0.0017,"nx":28,"ny":28,"refTime":"2024-06-07T21:00:00:Z","depth":0,"parameterNumber":2,"parameterNumberName":"U-component_of_WINDS"},"data":[0,0,0,0,0,0,0,0,0,0,0,0,0,0,0,0,0,0,0,0,0,0,0,0,0,0,0,0,0,0,0,0,0,0,0,0,0,0,0,0,0,0,0,0,0,0,0,0,0,0,0,0,0,0,0,0,0,0,2.7616,2.7616,0,2.7659,2.766,2.766,2.7618,2.7616,2.7615,2.7613,2.7657,2.7659,2.7662,0,0,0,0,0,0,0,0,0,0,0,0,0,2.7494,2.7496,2.7616,2.7616,2.7617,2.7659,2.766,2.7661,2.7618,2.7616,2.7614,2.7612,2.7656,2.7659,2.7662,0,0,0,0,0,0,0,0,0,0,0,0,0,2.7543,2.7497,2.7616,2.7601,2.76,2.7659,2.766,2.7661,2.7619,2.7616,2.7614,2.7611,2.7655,2.7659,2.7663,2.7739,0,0,2.7675,2.7677,0,0,0,0,0,0,0,0,2.7541,2.7548,2.7603,2.7602,2.7601,2.7631,2.7633,2.7687,2.7619,2.7612,2.7613,2.761,2.765,2.7654,2.7668,2.7741,2.7742,2.7676,2.7678,2.768,2.7681,0,0,0,0,0,0,0,2.7537,2.7546,2.7633,2.7603,2.7603,2.7592,2.7596,2.7643,2.7644,2.7612,2.7609,2.7615,2.7649,2.7664,2.7669,2.7743,2.7676,2.7679,2.7682,2.7683,2.7878,2.7881,0,0,0,0,0,0,2.7536,2.7543,2.7632,2.7634,2.7564,2.7596,2.76,2.7624,2.7644,2.7644,2.7617,2.7613,2.7659,2.7664,2.767,2.7759,2.768,2.7684,2.7686,2.7876,2.7879,2.7882,0,0,0,0,0,0,2.7533,2.7544,2.763,2.7588,2.7598,2.7601,2.7627,2.7626,2.7641,2.7648,2.7647,2.7632,2.7657,2.7664,2.7722,2.776,2.7686,2.7689,2.7872,2.7877,2.788,2.7938,0,0,0,0,0,0,2.753,2.7543,2.7573,2.7589,2.76,2.7681,2.7629,2.7629,2.7648,2.7643,2.7662,2.7662,2.7655,2.7716,2.7726,2.7764,2.7693,2.7869,2.7874,2.7879,2.7933,2.7944,2.7953,0,0,0,0,0,2.7526,2.7587,2.7574,2.7585,2.7637,2.7684,2.769,2.7681,2.7652,2.7681,2.7685,2.7662,2.7754,2.7722,2.7733,2.7773,2.7867,2.7873,2.7879,2.7928,2.7942,2.7953,0,0,0,0,0,0,2.7575,2.7589,2.7575,2.7644,2.7663,2.7676,2.7713,2.7696,2.7723,2.7717,2.7704,2.7709,2.7769,2.7777,2.7741,2.7847,2.7806,2.7814,2.784,2.7852,2.7862,2.7859,2.7696,0,0,0,0,0,2.7594,2.7631,2.7641,2.7701,2.7711,2.7711,2.773,2.7722,2.7741,2.7748,2.7757,2.7776,2.7809,2.7831,2.7862,2.7934,2.7937,2.7967,2.7977,2.7985,2.7993,2.803,2.8043,2.7902,2.7902,2.7902,0,0,2.7634,2.7646,2.767,2.7711,2.7725,2.7763,2.7718,2.776,2.7787,2.7755,2.7809,2.7816,2.7836,2.7901,2.793,2.7909,2.8033,2.7993,2.8,2.8003,2.8038,2.8051,2.8063,2.7906,2.7905,2.7905,0,0,2.7725,2.7738,2.7789,2.7803,2.7825,2.7824,2.7836,2.7852,2.7855,2.791,2.7885,2.7918,2.7976,2.7991,2.8006,2.8102,2.8082,2.8113,2.8165,2.8202,2.8213,2.8223,2.8256,2.8268,2.812,2.812,2.812,0,2.7771,2.7828,2.7817,2.7861,2.7879,2.7851,2.7902,2.7916,2.7947,2.796,2.7937,2.8008,2.802,2.8087,2.811,2.8124,2.8136,2.811,2.8212,2.8222,2.8231,2.8263,2.8275,2.8124,2.8123,2.8123,2.8123,0,2.7883,2.7922,2.7961,2.7991,2.8013,2.806,2.8056,2.808,2.8069,2.8071,2.8126,2.8139,2.8171,2.8187,2.8177,2.8252,2.8239,2.8214,2.8172,2.8248,2.8278,2.829,2.8129,2.8128,2.8127,2.8126,0,0,2.8006,2.8029,2.8044,2.8056,2.8078,2.8108,2.8153,2.8185,2.8205,2.8227,2.8264,2.8313,2.8291,2.8308,2.8299,2.8332,2.8405,2.8303,2.8303,2.8321,2.8488,2.8506,2.852,2.8392,2.8394,2.8396,2.8486,0,2.8097,2.8176,2.8168,2.8243,2.8279,2.8252,2.8292,2.8308,2.8311,2.8341,2.8343,2.8378,2.8346,2.8356,2.8386,2.839,2.8439,2.8383,2.8426,2.8427,2.8421,2.8536,2.8555,2.8639,2.8498,2.85,2.8501,0,2.8214,2.824,2.8319,2.8333,2.8348,2.8384,2.8412,2.8441,2.8459,2.8458,2.8478,2.8463,2.8508,2.8465,2.8526,2.8489,2.8505,2.851,2.8513,2.8516,2.8468,2.8541,2.8666,2.8678,2.8519,2.8518,2.8516,0,2.8295,2.8349,2.8403,2.8415,2.8434,2.8459,2.8468,2.8484,2.8504,2.8528,2.854,2.857,2.8586,2.8609,2.8602,2.8572,2.8664,2.8621,2.8664,2.8664,2.8684,2.8682,2.8812,2.8696,2.8696,2.8696,2.8695,0,2.8397,2.8446,2.844,2.8473,2.8526,2.8516,2.8569,2.8574,2.8589,2.8622,2.8601,2.8632,2.8622,2.8653,2.8648,2.8698,2.8706,2.8706,2.8704,2.8707,2.8707,2.8718,2.8711,2.8699,2.8698,2.8698,2.8697,0,2.8496,2.8494,2.8551,2.8564,2.8568,2.8607,2.8618,2.8649,2.8649,2.8691,2.87,2.8701,2.8736,2.8732,2.8771,2.8767,2.883,2.8821,2.8824,2.8821,2.8864,2.8859,2.9004,2.9022,2.8895,2.8897,2.8898,0,2.8561,2.8598,2.8615,2.8636,2.8647,2.868,2.87,2.8691,2.8712,2.8735,2.8763,2.8796,2.8821,2.8878,2.8882,2.8911,2.8903,2.8951,2.8907,2.8909,2.8902,2.89,2.8903,2.896,2.8961,2.8962,2.8963,0,2.8676,2.8673,2.8702,2.8731,2.8755,2.8778,2.8798,2.8816,2.8808,2.8833,2.8868,2.8889,2.8928,2.8961,2.8988,2.8997,2.8979,2.8977,2.8988,2.8992,2.8991,2.8991,2.8847,2.8974,2.8973,2.8972,2.8971,2.8971,2.8759,2.8791,2.8807,2.884,2.8854,2.8873,2.8902,2.8906,2.8936,2.8967,2.896,2.9,2.9016,2.9051,2.9063,2.9093,2.9075,2.9092,2.9096,2.91,2.9104,2.8987,2.9098,2.9098,2.9098,2.9098,2.9097,0,2.8872,2.8881,2.8912,2.8941,2.8966,2.8947,2.8968,2.8991,2.9026,2.9043,2.9069,2.9109,2.9141,2.9147,2.9176,2.92,2.9192,2.9208,2.9205,2.9207,2.9119,2.9106,2.9213,2.9213,2.9213,2.9213,2.9213,2.9213,2.8934,2.8985,2.8984,2.9042,2.905,2.9089,2.9103,2.912,2.9133,2.9179,2.9205,2.9209,2.9221,2.9251,2.9279,2.928,2.9291,2.931,2.9308,2.9225,2.9214,2.9203,2.919,2.9313,2.9313,2.9393,2.9394,2.9395]},{"header":{"parameterUnit":"m.s-1","parameterCategory":1,"la1":30.2991,"la2":30.254,"lo1":-89.0895,"lo2":-89.0444,"dy":0.0017,"dx":0.0017,"nx":28,"ny":28,"refTime":"2024-06-07T21:00:00:Z","depth":0,"parameterNumber":3,"parameterNumberName":"V-component_of_WINDS"},"data":[0,0,0,0,0,0,0,0,0,0,0,0,0,0,0,0,0,0,0,0,0,0,0,0,0,0,0,0,0,0,0,0,0,0,0,0,0,0,0,0,0,0,0,0,0,0,0,0,0,0,0,0,0,0,0,0,0,0,1.3078,1.3079,0,1.3141,1.3142,1.3143,1.3128,1.3127,1.3126,1.3125,1.319,1.3192,1.3195,0,0,0,0,0,0,0,0,0,0,0,0,0,1.2946,1.2948,1.3078,1.3079,1.308,1.3141,1.3142,1.3143,1.3128,1.3127,1.3125,1.3124,1.3189,1.3192,1.3196,0,0,0,0,0,0,0,0,0,0,0,0,0,1.3005,1.2949,1.3078,1.308,1.3081,1.3141,1.3142,1.3143,1.3129,1.3127,1.3125,1.3123,1.3188,1.3192,1.3196,1.3258,0,0,1.3209,1.3211,0,0,0,0,0,0,0,0,1.3002,1.301,1.3079,1.308,1.3081,1.3125,1.3119,1.3182,1.3129,1.311,1.3125,1.3122,1.317,1.3175,1.3191,1.3261,1.3264,1.3209,1.3212,1.3214,1.3215,0,0,0,0,0,0,0,1.2998,1.3007,1.3103,1.308,1.3081,1.3078,1.3084,1.3131,1.3149,1.3112,1.3111,1.3119,1.317,1.3187,1.3192,1.3265,1.3209,1.3213,1.3216,1.3217,1.3389,1.3391,0,0,0,0,0,0,1.2993,1.3004,1.3101,1.3105,1.3036,1.3081,1.3089,1.3113,1.3149,1.3153,1.312,1.3118,1.3181,1.3187,1.3195,1.327,1.3214,1.3218,1.322,1.3387,1.3389,1.3392,0,0,0,0,0,0,1.299,1.3002,1.3099,1.3054,1.3066,1.3086,1.3113,1.3115,1.3132,1.3155,1.3158,1.3134,1.3179,1.3189,1.3242,1.3272,1.322,1.3224,1.3385,1.3388,1.3391,1.3421,0,0,0,0,0,0,1.2986,1.3001,1.3025,1.3055,1.3069,1.3146,1.3114,1.3117,1.3139,1.3137,1.3169,1.3173,1.3179,1.3236,1.3247,1.3277,1.3227,1.3382,1.3386,1.339,1.3417,1.3425,1.3431,0,0,0,0,0,1.2982,1.3031,1.3026,1.3038,1.3099,1.3147,1.3155,1.3161,1.3142,1.3166,1.3181,1.3172,1.3267,1.3242,1.3254,1.3286,1.338,1.3385,1.3389,1.3414,1.3423,1.3431,0,0,0,0,0,0,1.3004,1.3035,1.303,1.3091,1.3116,1.3145,1.3176,1.317,1.3202,1.3198,1.3204,1.3212,1.3266,1.3281,1.3253,1.3347,1.3321,1.3328,1.3336,1.3344,1.3351,1.3347,1.3231,0,0,0,0,0,1.3016,1.3053,1.3078,1.3129,1.3142,1.3156,1.3178,1.318,1.3207,1.3218,1.3236,1.3263,1.3299,1.3322,1.3356,1.3419,1.3426,1.3447,1.3453,1.3459,1.3465,1.3499,1.3508,1.3406,1.3406,1.3406,0,0,1.3042,1.3063,1.3086,1.3134,1.3154,1.3191,1.3166,1.3207,1.3235,1.3224,1.3276,1.329,1.332,1.3379,1.3405,1.3393,1.3494,1.3464,1.3469,1.3472,1.3504,1.3514,1.3523,1.3409,1.3409,1.3408,0,0,1.3107,1.3127,1.3172,1.3192,1.3223,1.3232,1.3242,1.3272,1.3281,1.3333,1.3325,1.3358,1.342,1.3441,1.346,1.3533,1.3526,1.3544,1.3579,1.3612,1.362,1.3627,1.3653,1.3662,1.355,1.355,1.355,0,1.3135,1.3191,1.3195,1.3237,1.3258,1.3249,1.3294,1.3314,1.3354,1.3369,1.3354,1.3431,1.3451,1.3514,1.3531,1.3547,1.3559,1.354,1.3618,1.3625,1.3632,1.3657,1.3667,1.3552,1.3551,1.3551,1.3551,0,1.3224,1.3263,1.3295,1.3334,1.3359,1.3402,1.3412,1.3437,1.3436,1.3447,1.3499,1.3522,1.3561,1.3576,1.3576,1.3639,1.363,1.3617,1.359,1.3644,1.3667,1.3677,1.3555,1.3554,1.3553,1.3553,0,0,1.3307,1.3346,1.3358,1.3375,1.3408,1.3438,1.348,1.3518,1.3539,1.3566,1.3602,1.3654,1.3641,1.3663,1.3665,1.3694,1.3749,1.3677,1.3678,1.369,1.382,1.383,1.3841,1.3744,1.3746,1.3748,1.3818,0,1.3375,1.345,1.3454,1.3522,1.3558,1.3549,1.3586,1.361,1.3621,1.3653,1.3664,1.3701,1.3682,1.3695,1.3723,1.3737,1.3776,1.3732,1.3778,1.3779,1.3771,1.3853,1.3865,1.393,1.3827,1.3828,1.3829,0,1.3466,1.3496,1.3567,1.3594,1.3609,1.3642,1.3676,1.3707,1.3733,1.3739,1.3763,1.376,1.3804,1.3775,1.3834,1.3804,1.3823,1.3833,1.3835,1.384,1.3808,1.3861,1.395,1.396,1.3844,1.3843,1.3842,0,1.3519,1.3577,1.3627,1.3642,1.3675,1.3698,1.3713,1.3738,1.3759,1.3789,1.3803,1.3838,1.3857,1.3883,1.389,1.3869,1.395,1.3921,1.3956,1.3955,1.3974,1.3973,1.4068,1.3985,1.3985,1.3985,1.3985,0,1.3596,1.364,1.3652,1.3683,1.3731,1.3736,1.3784,1.3797,1.3819,1.3852,1.3846,1.3877,1.3885,1.3917,1.3923,1.3971,1.3979,1.3985,1.3986,1.3986,1.3986,1.3999,1.3995,1.3987,1.3987,1.3986,1.3986,0,1.3664,1.3674,1.3728,1.3754,1.3761,1.3796,1.3818,1.3848,1.3857,1.3899,1.3909,1.3924,1.3962,1.3972,1.4017,1.402,1.4078,1.4074,1.4069,1.4069,1.4102,1.4099,1.421,1.4225,1.4132,1.4133,1.4134,0,1.3713,1.3746,1.3776,1.3797,1.3813,1.3848,1.387,1.3875,1.3898,1.393,1.3956,1.3993,1.4023,1.4084,1.4099,1.4133,1.413,1.4167,1.4136,1.4134,1.4131,1.4129,1.4133,1.4173,1.4174,1.4175,1.4176,0,1.3798,1.3801,1.3833,1.3866,1.3893,1.3919,1.3945,1.3963,1.3971,1.3998,1.4036,1.4059,1.4105,1.4142,1.4176,1.4191,1.4185,1.4185,1.4195,1.4195,1.4191,1.4194,1.4085,1.4183,1.4182,1.4182,1.4181,1.4181,1.3858,1.3887,1.3912,1.3948,1.3967,1.3991,1.402,1.4033,1.4065,1.4102,1.4103,1.4145,1.417,1.4215,1.4232,1.4265,1.4254,1.4268,1.4271,1.4275,1.4278,1.4185,1.4271,1.4271,1.4271,1.427,1.427,0,1.3943,1.3958,1.3991,1.4027,1.4054,1.4045,1.4073,1.4097,1.4134,1.4157,1.4187,1.4231,1.4266,1.4283,1.4318,1.4341,1.4339,1.435,1.4349,1.4352,1.4286,1.4274,1.4351,1.4351,1.4351,1.4351,1.4351,1.4351,1.399,1.4039,1.4045,1.4103,1.4118,1.4159,1.4176,1.4197,1.4216,1.4265,1.4295,1.4305,1.4326,1.4363,1.4395,1.4399,1.4412,1.4425,1.4427,1.4365,1.4357,1.4349,1.4338,1.4427,1.4428,1.4491,1.4492,1.4492]}]]